Weather History for Orlando International, FL

Change the Weather History Date:

Saturday, May 5, 2012

  Actual Average Record
Temperature  
Mean Temperature 78 °F 75 °F  
Max Temperature 91 °F 86 °F 96 °F (1915)
Min Temperature 65 °F 64 °F 50 °F (1921)
Degree Days  
Heating Degree Days 0 0  
Month to date heating degree days 0 0  
Since 1 July heating degree days 313 570  
Cooling Degree Days 13 10  
Month to date cooling degree days 66 48  
Year to date cooling degree days 679 469  
Growing Degree Days 28 (Base 50)    
Moisture  
Dew Point 65 °F    
Average Humidity 66    
Maximum Humidity 97    
Minimum Humidity 34    
Precipitation  
Precipitation 0.00 in 0.07 in 1.30 in (1904)
Month to date precipitation T 0.34  
Year to date precipitation 5.75 11.52  
Sea Level Pressure  
Sea Level Pressure 29.99 in    
Wind  
Wind Speed 4 mph (SSE)    
Max Wind Speed 12 mph    
Max Gust Speed -    
Visibility 10 miles    
Events      
T = Trace of Precipitation, MM = Missing Value Source: NWS Daily Summary

Daily Weather History Graph

Daily Weather History Graph

Search for Another Location

Airport:

Trip Planner

Search our weather history database for the weather conditions in past years. The results will help you decide how hot, cold, wet, or windy it might be!

Date:

Astronomy

May. 05, 2012 Rise Set
Actual Time 6:41 AM EDT 8:02 PM EDT
Civil Twilight 6:16 AM EDT 8:28 PM EDT
Nautical Twilight 5:46 AM EDT 8:58 PM EDT
Astronomical Twilight 5:15 AM EDT 9:29 PM EDT
Moon 7:51 PM EDT (5/5) 6:01 AM EDT (5/5)
Length of Visible Light 14h 12m
Length of Day
13h 21m
Full, 100% of the Moon is Illuminated
May 5
Full
May 5
Full
May 12
Last Quarter
May 20
New
May 28
First Quarter

Hourly Weather History & Observations

Time (EDT) Temp. Heat Index Dew Point Humidity Pressure Visibility Wind Dir Wind Speed Gust Speed Precip Events Conditions
12:53 AM 70.0 °F - 64.9 °F 84% 30.04 in 10.0 mi SE 3.5 mph - N/A   Partly Cloudy
1:53 AM 68.0 °F - 64.9 °F 90% 30.02 in 10.0 mi Calm Calm - N/A   Clear
2:53 AM 68.0 °F - 64.9 °F 90% 30.00 in 10.0 mi Calm Calm - N/A   Clear
3:53 AM 68.0 °F - 66.0 °F 93% 29.99 in 10.0 mi Calm Calm - N/A   Clear
4:53 AM 68.0 °F - 64.9 °F 90% 29.99 in 10.0 mi South 3.5 mph - N/A   Clear
5:37 AM 66.2 °F - 64.4 °F 94% 30.00 in 10.0 mi Calm Calm - N/A   Mostly Cloudy
5:53 AM 66.9 °F - 64.9 °F 93% 30.00 in 10.0 mi Calm Calm - N/A   Mostly Cloudy
6:15 AM 66.2 °F - 66.2 °F 100% 30.01 in 10.0 mi Calm Calm - N/A   Scattered Clouds
6:44 AM 66.2 °F - 64.4 °F 94% 30.02 in 5.0 mi SSE 3.5 mph - N/A   Partly Cloudy
6:47 AM 66.2 °F - 64.4 °F 94% 30.02 in 5.0 mi SSE 3.5 mph - N/A   Scattered Clouds
6:53 AM 66.0 °F - 64.9 °F 96% 30.01 in 5.0 mi SSE 3.5 mph - N/A   Partly Cloudy
7:53 AM 70.0 °F - 68.0 °F 93% 30.04 in 10.0 mi Calm Calm - N/A   Clear
8:53 AM 75.0 °F - 68.0 °F 79% 30.05 in 10.0 mi SSW 5.8 mph - N/A   Partly Cloudy
9:53 AM 79.0 °F - 66.0 °F 64% 30.04 in 10.0 mi South 6.9 mph - N/A   Partly Cloudy
10:53 AM 80.1 °F 82.1 °F 66.0 °F 62% 30.04 in 10.0 mi South 5.8 mph - N/A   Partly Cloudy
11:53 AM 82.9 °F 84.0 °F 63.0 °F 51% 30.04 in 10.0 mi Variable 4.6 mph - N/A   Partly Cloudy
12:53 PM 86.0 °F 86.8 °F 63.0 °F 46% 30.02 in 10.0 mi Variable 4.6 mph - N/A   Partly Cloudy
1:53 PM 89.1 °F 90.0 °F 63.0 °F 42% 29.99 in 10.0 mi Variable 3.5 mph - N/A   Partly Cloudy
2:53 PM 89.1 °F 88.0 °F 57.9 °F 35% 29.98 in 10.0 mi Calm Calm - N/A   Partly Cloudy
3:53 PM 89.1 °F 89.0 °F 61.0 °F 39% 29.95 in 10.0 mi East 5.8 mph - N/A   Partly Cloudy
4:53 PM 89.1 °F 88.2 °F 59.0 °F 36% 29.94 in 10.0 mi East 4.6 mph - N/A   Partly Cloudy
5:53 PM 91.0 °F 90.2 °F 59.0 °F 34% 29.93 in 10.0 mi SSE 8.1 mph - N/A   Partly Cloudy
7:53 PM 82.0 °F 84.5 °F 66.9 °F 60% 29.93 in 10.0 mi ESE 11.5 mph - N/A   Partly Cloudy
8:53 PM 79.0 °F - 66.9 °F 66% 29.94 in 10.0 mi SE 10.4 mph - N/A   Partly Cloudy
9:53 PM 75.9 °F - 66.9 °F 74% 29.94 in 10.0 mi SE 8.1 mph - N/A   Clear
10:53 PM 77.0 °F - 66.9 °F 71% 29.96 in 10.0 mi Variable 3.5 mph - N/A   Clear
11:53 PM 73.0 °F - 66.9 °F 81% 29.96 in 10.0 mi South 5.8 mph - N/A   Clear